CAPE
13 23 16 27 7 7 22 15 10 7 10 16 16 8 3 20 23 7 2 4 1 0 0 0 0 0 0 0 1 12 0 0 0 0 0 0 5 2 14 23 33 0 0 0 0 0 0 34 0 0 49 68 17 0
11 20 11 9 14 4 5 5 8 0 4 0 4 7 11 1 20 12 4 3 0 0 0 0 0 0 0 0 0 0 0 5 1 0 0 2 44 123 42 49 54 44 38 9 148 53 152 2 82 146 102 51 0 0
7 4 12 7 5 7 0 1 5 3 0 3 1 3 8 0 2 1 7 5 0 0 0 0 0 0 0 0 0 0 0 0 0 0 6 67 103 54 26 16 64 37 5 4 57 81 3 0 0 0 0 0 0 0
10 8 6 2 5 8 2 0 0 5 0 0 5 3 3 3 1 1 18 2 2 0 0 0 0 0 0 0 0 0 0 0 0 0 0 18 43 25 25 73 61 57 4 0 7 15 0 0 0 0 0 0 0 0
4 4 5 8 6 3 8 4 4 6 1 8 8 1 1 2 6 5 22 5 15 0 0 0 0 0 0 0 0 0 0 0 0 0 0 0 56 0 0 0 36 23 13 1 16 7 3 0 0 0 0 0 0 0
5 4 5 5 1 1 3 5 3 6 3 9 0 0 3 4 4 22 2 12 12 4 0 0 0 0 0 0 0 0 0 0 0 0 0 0 0 0 13 0 0 34 3 1 1 0 0 0 0 0 0 0 0 0
0 0 1 6 10 9 4 9 1 1 0 0 0 0 2 11 12 9 11 0 0 9 0 0 0 0 0 0 0 0 0 0 0 0 0 0 0 0 0 6 37 17 0 0 0 0 0 0 0 0 0 0 0 0
0 0 6 7 4 4 4 2 2 2 0 0 0 6 10 9 0 0 3 0 0 3 0 0 0 0 0 0 0 0 0 0 0 0 0 0 0 0 0 0 0 0 0 0 0 0 0 0 0 0 0 0 0 0
0 5 0 6 3 4 2 0 5 1 0 7 6 3 24 8 11 21 0 0 0 1 3 0 0 3 0 0 0 0 0 0 0 0 0 0 0 0 0 0 0 0 0 0 0 0 0 0 0 0 0 0 0 0
5 14 7 3 11 2 0 3 2 5 0 1 11 17 10 20 0 0 1 10 4 1 0 5 1 0 0 0 0 0 0 0 0 0 0 0 0 0 0 0 0 0 0 0 0 0 0 0 0 0 0 0 0 0
1 5 3 7 10 9 5 16 6 3 0 16 26 3 30 0 15 13 9 17 9 0 0 5 8 0 0 7 4 14 1 1 0 15 0 1 0 0 0 0 0 0 0 0 0 0 0 0 0 0 3 11 0 0
9 0 3 0 0 4 8 0 0 11 22 11 6 11 33 25 18 17 14 5 14 18 0 10 2 31 0 5 38 3 34 5 13 10 0 0 10 0 0 0 0 0 1 1 3 3 9 15 13 20 22 20 25 20
0 2 0 0 0 0 1 0 0 0 0 28 49 23 21 8 1 10 13 30 17 20 14 13 0 10 0 3 35 0 4 5 4 0 0 0 1 0 0 0 2 12 11 8 12 19 17 16 15 14 21 31 19 0
0 0 0 0 0 0 0 0 0 0 13 34 18 0 13 9 14 20 35 20 66 83 55 65 18 38 54 3 34 15 9 0 0 0 0 0 0 1 12 22 32 36 34 46 42 55 11 12 3 1 1 1 5 17
0 0 0 0 0 0 0 0 0 1 16 18 12 7 25 13 23 16 55 49 41 90 45 44 22 51 32 31 12 24 10 0 0 3 22 8 16 31 40 12 57 68 60 85 82 45 12 3 4 3 2 2 5 7
0 0 1 0 0 0 0 0 5 20 9 21 11 2 23 23 16 50 36 43 53 64 37 32 46 18 21 31 22 14 5 14 68 58 70 140 118 85 54 19 112 154 171 145 59 58 41 27 8 2 2 2 3 2
0 13 0 0 0 0 0 0 7 13 4 15 11 18 30 34 36 49 28 36 42 39 23 33 21 21 47 35 18 31 37 16 9 6 0 1 3 16 35 122 228 228 199 148 121 77 33 3 3 7 5 5 1 1
14 0 0 0 0 4 6 6 4 5 1 7 19 8 3 3 0 6 9 6 3 5 23 17 21 14 26 18 40 36 26 9 5 0 0 1 36 27 104 214 223 221 215 128 109 50 1 6 0 0 1 5 0 0
0 0 0 0 0 0 6 3 6 5 6 0 5 5 7 8 10 12 14 12 11 12 9 19 14 5 12 13 11 6 1 0 0 0 1 35 171 100 153 43 161 221 276 50 3 29 3 0 0 11 7 14 8 3
0 0 0 0 0 13 4 6 7 4 1 1 4 1 2 9 5 12 5 8 3 2 3 2 2 1 0 0 0 0 2 17 5 0 2 28 91 61 18 2 8 174 153 72 43 59 22 6 0 0 2 0 0 0
1 13 0 0 13 7 9 7 6 1 1 2 5 1 6 0 0 6 9 3 0 1 0 0 0 0 0 0 0 12 66 7 0 0 1 11 9 19 12 90 83 91 89 38 24 6 5 10 23 18 0 0 0 0
13 0 0 0 2 3 1 0 1 0 1 1 0 3 3 3 2 1 5 0 0 0 0 4 53 48 25 41 92 70 80 52 14 11 15 20 26 35 36 48 79 27 18 4 2 2 0 3 1 0 0 0 0 0
0 2 0 0 2 1 0 2 3 2 1 1 2 1 1 3 2 0 10 19 10 12 26 34 76 113 83 84 79 82 40 55 65 65 39 59 31 29 25 19 40 21 15 18 25 15 6 0 1 3 2 0 3 0
0 1 2 3 3 0 2 3 1 3 0 0 3 3 4 3 37 46 9 16 33 128 112 35 40 87 42 44 36 29 37 19 39 31 42 43 32 45 44 47 37 34 16 22 10 0 26 22 11 10 10 23 22 16
1 1 0 0 2 2 14 9 3 32 18 30 14 18 31 17 7 20 27 73 82 93 115 100 29 1 7 30 31 16 0 5 17 31 23 31 40 33 36 29 15 1 1 20 25 35 26 5 29 20 16 29 29 24
0 1 0 4 5 1 11 71 25 8 10 19 19 15 39 26 7 19 75 212 194 247 174 103 85 61 39 27 15 3 0 0 0 15 37 36 33 37 30 26 19 1 0 0 7 35 42 41 27 19 14 5 0 0
18 25 151 23 19 85 116 253 77 77 40 38 29 12 9 17 25 106 194 275 94 43 38 39 31 19 7 0 0 0 0 1 0 0 4 24 27 14 19 22 18 1 0 0 0 2 1 1 1 0 0 3 6 4
130 86 29 17 18 30 83 62 37 18 27 49 26 7 15 21 51 94 53 50 76 52 43 31 23 17 5 5 3 0 0 0 46 32 29 8 12 19 10 18 14 0 0 0 0 0 0 1 0 0 0 0 0 0
43 45 31 25 34 24 27 24 16 18 33 31 25 20 20 25 31 44 52 30 38 42 31 28 31 31 31 29 26 23 7 4 2 1 0 1 17 4 2 4 4 6 4 1 0 0 0 0 0 0 0 0 0 0
43 24 31 31 25 29 28 32 26 44 53 35 23 16 18 18 25 30 33 33 41 51 61 47 36 41 47 41 38 27 15 30 29 33 35 29 23 21 22 27 29 26 25 10 7 5 0 0 0 0 0 0 0 4
62 43 44 49 29 50 41 64 47 44 51 22 27 12 2 20 16 20 27 29 43 35 34 38 34 32 34 29 31 35 24 19 29 30 11 10 23 20 25 22 29 32 22 25 34 30 25 22 18 15 16 18 22 22
46 41 15 19 44 67 121 71 83 51 80 189 68 17 31 10 0 1 39 23 21 35 21 36 28 19 23 23 22 41 18 40 36 41 23 18 17 12 9 5 9 33 33 34 38 37 40 48 44 37 31 20 23 20
200 83 48 46 48 147 182 142 122 94 4 52 72 27 15 2 31 32 33 35 25 4 1 21 38 32 32 52 53 51 45 52 43 20 1 0 0 0 0 19 17 11 14 14 27 26 30 30 33 19 20 35 27 28
CIN
-6 -2 -4 -3 -10 -12 -13 -14 -14 -30 -19 -10 -13 -15 -15 -10 -14 -3 -2 -1 -2 0 0 0 0 0 0 0 -2 -13 0 0 0 0 0 0 -6 -6 -8 -5 -4 0 0 0 0 0 0 -76 0 0 -67 -109 -113 0
-11 -5 -7 -8 -9 -24 -25 -21 -14 -7 -24 -3 -13 -18 -10 -6 -13 -13 -1 -1 0 0 0 0 0 0 0 0 0 0 -1 -44 -5 0 0 -4 -7 -12 -4 -9 -31 -5 -5 -7 -22 -12 -74 -9 -108 -117 -93 -108 0 0
-5 -5 -4 -2 -6 -8 0 -16 -16 -16 0 -11 -11 -21 -13 -14 -17 -16 -1 -2 0 0 0 0 0 0 0 0 0 0 0 0 0 0 -39 -9 -3 -7 -4 -8 -3 -19 -33 -14 -34 -119 -45 0 0 0 0 0 0 0
-4 -2 -5 -2 -2 -6 -11 0 -4 -9 0 0 -12 -13 -20 -19 -18 -15 -1 -3 0 0 0 0 0 0 0 0 0 0 0 0 0 0 0 -12 -6 -33 -5 -14 -6 -23 -15 0 -9 -43 0 0 0 0 0 0 0 0
-5 -3 -4 -3 -5 -7 -3 -9 -10 -10 -4 -12 -14 -13 -18 -25 -20 -23 -2 -7 -2 0 0 0 0 0 0 0 0 0 0 0 0 0 0 0 -5 0 0 -1 -6 -10 -7 -2 -2 -27 -11 0 0 0 0 0 0 0
-3 -4 -6 -7 -2 -3 -3 -4 -9 -14 -12 -10 -6 0 -22 -20 -38 -1 -3 -2 -1 -1 0 0 0 0 0 0 0 0 0 0 0 0 0 0 0 0 -4 -1 0 -4 -27 -6 -1 0 0 0 0 0 0 0 0 0
0 0 -7 -6 -2 -3 -2 -5 -14 -10 0 -4 0 0 -14 -19 -17 -1 -1 0 0 -1 -1 -1 0 0 0 0 0 0 0 0 0 0 0 0 0 0 0 -2 -4 -14 0 0 0 0 0 0 0 0 0 0 0 0
0 0 -6 -4 -4 -5 -4 -5 -11 -5 0 0 0 -18 -20 -30 -20 0 -1 0 0 -2 0 0 -2 0 0 0 0 0 0 0 0 0 0 0 0 0 0 0 0 0 0 0 0 0 0 0 0 0 0 0 0 0
0 -5 -2 -4 -4 -5 -7 0 -5 -5 0 -9 -16 -19 -5 -2 -2 -1 0 0 0 -2 -7 0 0 -2 0 0 -1 0 0 0 0 0 0 0 0 0 0 0 0 0 0 0 0 0 0 0 0 0 0 0 0 0
-7 -9 -5 -6 -6 -2 0 -7 -6 -5 -9 -11 -6 -2 -1 -3 0 0 0 -1 -1 -1 0 -17 -9 0 0 0 0 0 0 0 0 0 0 0 0 0 0 0 0 0 0 0 0 0 0 0 0 0 0 0 0 0
-9 -7 -6 -8 -9 -5 -4 -2 -2 -4 0 -1 0 -1 -3 0 -2 -3 0 -3 -2 0 0 -1 -6 0 0 -4 -4 -2 -2 -2 0 -3 0 -1 -1 0 0 0 0 0 0 0 0 0 0 0 0 0 -1 -1 0 0
-5 0 -10 0 0 -3 -6 0 0 -8 -2 0 -1 -1 -2 -1 -1 -1 -3 -2 -4 -4 0 -2 -2 -3 0 -12 -3 -3 -3 -2 -2 -6 -1 0 -7 0 0 0 0 0 0 -1 -1 -1 0 -1 -1 -1 -1 -1 -1 -2
-3 -15 0 0 0 -1 -11 0 0 0 0 -1 0 -2 -1 -3 -4 -4 -1 -2 -4 -22 -2 -15 0 -3 0 -1 -2 -3 -2 -2 -1 -1 0 0 -7 0 0 0 -2 -1 -1 -1 0 -1 -1 0 -1 -3 -4 -2 -1 0
0 0 0 0 0 -4 0 0 0 0 -2 -1 0 0 -1 -2 -1 -1 -5 -2 -1 -1 -2 -4 -6 -3 -1 -3 -3 -1 -4 -3 0 0 0 0 0 0 -2 -1 -1 -18 -1 -3 -1 -13 -1 -3 -8 -17 -8 -1 0 -2
0 0 0 0 0 0 0 0 0 -3 0 -1 -1 -2 0 0 -1 -2 -4 -1 -1 -2 -2 -5 -6 -3 -4 -4 -3 -3 -1 0 0 -1 -4 -5 -2 -1 -2 -6 -1 -1 -1 -1 -2 -17 -3 0 0 0 0 0 -1 -1
0 0 -1 0 0 0 0 0 -4 -1 -4 0 -1 -2 0 -1 -2 -1 -1 -1 -1 -2 -1 -3 -3 -5 -4 -4 -2 -1 -2 -3 -8 -7 -1 -1 0 -1 -1 -6 0 0 0 0 -1 -1 0 -5 -25 0 0 0 0 0
0 -1 0 0 0 0 0 -3 -2 -1 -1 -1 -2 -2 -1 -2 -1 -1 -2 -1 0 -1 -2 -1 0 -2 -3 0 -3 -3 -13 -2 -1 -1 0 -1 -2 -1 -1 0 0 0 0 0 0 -1 -5 0 0 0 0 0 0 0
-2 0 0 0 0 -1 -2 -4 -3 -2 -4 -2 -1 -3 -5 -9 -1 -2 -1 -2 -3 0 -2 -5 -1 0 0 -1 -2 -2 -3 -1 -1 0 0 0 -16 -6 -1 0 0 0 0 -1 0 -13 -47 -13 0 0 0 -1 0 0
0 0 0 0 0 0 -1 0 -1 -1 -1 -1 -1 -2 -1 -1 -1 -1 -1 -1 -1 -1 -1 0 0 -1 -1 -4 0 0 -1 0 0 0 0 0 0 -1 -1 -22 0 -1 0 -15 -54 -20 -9 0 0 -4 -7 -2 -2 -2
0 0 0 0 0 0 0 0 -1 0 -1 0 0 -6 -1 0 0 0 0 0 0 0 0 0 0 0 0 0 0 0 -9 -2 -1 0 -1 -9 0 -7 -13 -14 -27 -5 -1 0 -5 -7 -3 -2 0 0 -2 0 0 0
-1 -2 0 0 0 -1 0 0 0 0 0 0 0 0 0 0 0 0 0 -2 0 0 0 0 0 0 0 0 0 -9 -2 -1 0 0 -13 -3 -6 -8 -13 -8 -15 -14 -12 -12 -5 -4 -24 -4 -2 -3 0 0 0 0
0 0 0 -1 0 0 0 0 0 0 0 0 0 0 0 0 0 -1 -3 0 -2 -5 0 -27 -9 -15 -14 -6 -4 -17 -4 -16 -60 -63 -58 -22 -11 -29 -34 -28 -5 -2 -1 -2 0 -2 0 -2 -2 0 0 0 0 0
0 -1 0 0 0 0 0 0 0 0 0 0 0 0 0 0 0 0 -1 -3 -5 -20 -24 -16 -10 -4 -2 -1 -2 -1 -1 -1 -12 -5 -21 -11 -3 -1 -5 -2 -1 -7 -10 -2 -2 -4 -8 -1 -1 -8 -2 -1 -3 0
0 0 0 0 0 0 0 0 0 0 0 -1 -1 0 -2 -2 -3 -1 -2 -6 -15 -10 -4 -38 -13 -2 -1 -1 -1 0 0 -19 -3 -2 -1 -1 -3 -2 -6 -1 -1 -3 -9 -4 -11 -6 -3 -9 -17 -7 -11 -5 -1 -2
0 0 0 0 0 0 0 -5 -1 -3 -1 -1 -1 -3 -2 -5 -1 -1 -1 -1 -3 -3 -4 -1 -10 -2 -10 -3 -2 -1 0 -6 -5 -1 -3 -2 -2 -2 -3 -2 -3 -3 -3 -3 -1 -17 -10 -9 -9 -7 -10 -5 -2 -1
0 -3 0 -12 -10 0 0 -1 -3 -3 -5 -4 -3 -8 -2 -2 -2 0 -1 0 -2 -10 -1 -1 -1 -3 -4 -2 -3 -2 0 0 0 -3 -3 -2 -4 -2 -3 -3 -3 -3 0 -1 -4 -2 -3 -1 -4 -2 -2 -4 0 0
-4 -5 -2 -27 -31 -21 -19 -2 -3 -1 -2 -3 -1 -1 -5 -2 0 0 -4 -6 -1 -2 -2 -2 -3 -2 -2 0 0 0 0 -1 0 0 -1 -3 -3 -4 -5 -4 -3 -2 0 0 0 -2 -2 -2 -2 -1 -1 -2 -3 -4
-1 -4 -3 -6 -2 -3 -2 -2 -3 -6 -2 -13 -2 -3 -2 -1 -1 -7 -2 -1 -1 -1 -5 -6 -3 -4 -3 -2 -7 0 0 -1 -6 -3 -4 -5 -6 -5 -5 -2 -2 0 0 0 0 0 0 -3 0 0 0 0 0 0
-1 -5 -3 -3 -2 -1 -2 -4 -2 -2 -2 -2 -3 -2 -1 -2 -2 -1 -3 -3 -5 -6 -2 -4 -4 -5 -6 -6 -4 -5 -4 -5 -2 0 -1 -4 -3 -4 -5 -3 -2 -4 -3 -4 0 0 0 0 0 0 0 0 0 -1
-1 -4 -5 -4 -2 -3 -3 -2 -3 -5 -23 -4 -2 -2 -3 -2 -3 -5 -4 -3 -3 -4 -4 -3 -4 -3 -3 -4 -4 -3 -6 -5 -5 -2 -2 -2 -4 -4 -5 -6 -3 -3 -4 -3 -2 -4 0 0 0 0 0 0 -2 -2
-2 -3 -8 -1 -2 -3 -4 -8 -1 -1 -6 -24 -10 -4 -10 -2 -5 -7 -3 -4 -3 -7 -3 -3 -4 -3 -1 -4 -2 -1 -3 -5 -3 -3 -6 -4 -5 -3 -4 -4 -4 -2 -4 -4 -5 -3 -5 -4 -4 -4 -3 -5 -4 -4
-3 0 -8 -19 -4 -2 -1 -4 -3 -6 -1 -3 -6 -5 -2 -8 -1 -8 -1 -2 -7 -1 -14 -4 -9 -27 -29 -23 -21 -4 -21 -5 -4 -5 -4 -2 -5 -1 -3 -3 -3 -4 -5 -5 -3 -3 -2 -2 -4 -2 -2 -3 -6 -3
-3 -4 -4 -4 -8 0 -2 -2 -1 -15 -4 -12 -24 -2 -1 0 0 -1 -3 -3 -5 -25 -11 -6 -5 -8 -6 -2 -4 -5 -5 -4 -6 -12 -8 0 0 0 -3 -4 -3 -4 -3 -3 -5 -3 -2 -3 -7 -4 -2 -1 -3 -2
Wind_Speed
26 27 29 28 29 29 29 28 28 28 27 26 26 27 28 27 25 25 28 24 27 32 36 28 28 28 26 26 27 21 25 28 26 32 33 30 30 32 35 32 31 32 37 37 36 38 40 14 16 24 17 13 13 14
24 25 26 26 28 29 30 30 29 28 27 26 26 27 27 27 26 24 27 22 25 30 31 28 31 32 29 26 25 24 22 21 21 28 30 30 28 19 27 30 19 27 27 31 28 30 18 14 15 12 12 12 14 16
21 23 23 24 27 28 30 30 29 29 28 27 26 27 26 26 25 25 27 25 25 30 32 32 28 28 27 29 25 24 20 22 21 21 24 23 25 21 25 31 18 23 22 23 21 16 14 13 13 13 13 14 16 18
19 18 19 22 20 29 30 30 29 29 28 27 27 26 25 24 24 25 26 25 22 24 24 20 20 22 20 22 24 25 26 24 25 24 24 24 24 21 24 20 26 17 17 23 22 19 18 19 17 16 17 18 19 20
13 11 10 10 30 29 29 28 28 28 27 26 25 25 24 24 24 25 27 26 23 23 23 21 18 18 19 20 24 24 21 23 22 22 25 27 23 23 25 25 22 18 21 23 26 24 20 20 17 16 18 20 21 24
15 10 11 18 9 20 24 25 24 25 24 25 24 23 24 23 23 22 20 21 20 21 21 22 15 17 17 17 20 21 20 21 21 22 22 21 20 23 25 26 25 18 18 20 20 17 17 17 17 18 21 25 27 28
10 11 13 14 17 19 22 22 22 22 23 23 23 22 22 22 24 23 19 17 16 18 19 21 17 15 15 14 15 17 18 21 22 21 24 25 24 26 30 30 19 21 19 20 21 22 24 23 25 23 24 26 28 29
8 12 16 18 15 16 16 18 20 20 20 21 21 21 21 22 23 23 24 24 21 21 19 19 16 14 16 16 16 14 18 19 20 22 21 25 22 23 29 28 30 26 24 25 25 23 25 25 26 27 28 29 30 30
8 10 12 12 13 13 14 15 16 17 20 21 19 18 18 19 19 15 13 16 21 19 20 18 15 15 15 16 11 15 15 18 16 23 24 21 25 26 23 25 24 24 23 23 23 26 26 27 28 28 28 27 28 29
8 10 9 10 10 11 12 13 16 18 17 18 20 19 19 16 15 15 14 16 19 19 19 20 16 13 17 15 14 13 16 18 19 20 16 25 29 22 19 18 18 19 22 24 26 26 26 26 26 25 25 26 27 29
7 8 9 9 9 9 10 11 14 15 19 19 18 17 16 15 17 16 17 18 16 19 19 17 18 12 14 16 13 16 16 16 20 17 20 21 22 19 18 20 20 20 19 20 23 25 27 28 28 28 27 27 27 26
6 8 9 9 9 9 10 13 12 15 17 16 18 18 18 18 18 18 19 17 21 17 17 16 15 12 13 16 14 16 16 16 18 15 19 22 16 12 13 15 16 18 19 20 22 25 27 29 29 29 27 27 26 25
6 7 8 8 9 9 11 13 13 14 16 20 17 17 17 18 18 20 20 19 17 17 16 15 14 14 13 17 15 15 17 19 17 18 19 19 11 12 15 18 19 19 19 21 23 20 23 24 21 22 24 24 26 27
9 9 10 10 9 10 12 13 13 13 15 17 16 16 17 17 18 16 11 12 12 15 17 11 13 16 14 16 15 17 16 16 18 20 19 17 11 13 16 20 22 22 21 20 17 18 20 20 20 20 21 22 22 21
9 10 12 12 12 12 13 13 13 13 16 15 15 15 15 18 20 15 17 11 9 15 18 14 18 17 15 14 18 17 15 19 17 17 14 9 10 14 17 22 23 21 17 14 15 17 18 19 19 19 19 19 20 20
9 11 13 13 13 13 13 13 15 14 15 15 16 17 16 17 17 12 11 11 11 15 18 15 16 14 18 18 17 18 18 18 15 18 17 17 17 19 21 25 23 16 12 12 14 15 16 16 16 16 17 18 18 18
11 13 11 12 12 14 13 13 14 15 15 16 16 16 12 10 9 10 10 11 12 12 15 17 17 14 17 18 18 19 18 20 23 25 27 30 31 28 26 24 13 10 11 13 13 14 14 14 13 13 14 16 16 16
14 14 12 10 10 13 15 14 14 15 15 14 13 13 12 13 14 12 12 13 14 15 15 16 18 18 18 18 17 18 22 26 28 28 29 28 28 30 23 11 9 9 10 11 11 10 11 10 12 12 14 16 18 18
12 11 10 9 9 14 14 13 13 15 14 13 13 12 13 14 13 14 15 15 15 16 17 17 18 19 19 18 20 20 17 16 17 19 19 17 10 6 5 5 5 7 8 9 8 8 9 9 10 12 15 14 16 17
11 11 10 10 11 16 16 17 14 17 17 16 15 15 15 15 15 14 13 13 13 15 16 16 18 19 18 17 18 16 13 8 7 6 9 6 5 3 3 6 10 9 7 10 10 9 16 13 12 12 12 14 15 15
12 11 10 11 15 15 16 15 16 15 15 15 14 13 15 15 15 15 15 14 15 18 21 21 23 20 19 18 15 13 13 24 20 11 3 6 8 6 9 11 9 15 16 19 17 10 11 11 12 14 14 14 14 14
12 9 12 13 15 14 15 14 14 13 15 15 18 21 23 24 24 24 24 23 20 20 22 17 18 20 20 19 20 22 22 25 24 26 3 8 20 21 23 22 20 12 10 10 8 10 11 12 13 13 14 13 13 14
12 14 14 15 18 18 18 17 18 19 21 22 22 24 27 28 26 25 20 20 21 20 21 19 22 21 26 21 7 7 6 9 22 9 22 21 13 11 12 12 11 12 12 13 14 14 13 14 12 16 13 11 12 13
16 17 18 19 21 21 19 20 21 20 21 23 24 27 25 23 25 23 22 19 16 18 22 2 7 25 17 22 12 8 7 13 14 12 11 14 16 16 17 16 15 14 13 11 13 13 13 12 11 14 20 16 12 12
19 18 18 15 18 18 15 18 24 23 15 30 29 21 16 19 21 25 19 2 14 12 6 4 25 25 5 7 16 18 12 13 15 17 14 14 16 16 16 15 16 18 20 18 13 8 10 13 7 7 6 6 13 16
22 20 16 14 18 17 16 17 13 10 19 18 24 23 21 16 19 22 18 7 8 8 8 14 16 10 20 18 17 17 16 16 15 14 13 17 17 18 18 19 19 20 22 20 19 17 12 8 12 17 17 15 13 16
6 8 16 18 17 15 17 17 15 18 16 15 8 15 21 22 22 22 15 17 11 23 18 14 13 19 20 20 21 20 18 19 19 17 17 17 18 18 21 22 22 22 24 23 21 20 21 22 22 22 23 21 18 12
12 14 17 8 3 3 18 13 10 6 4 7 7 7 15 16 19 18 20 21 18 20 24 24 21 22 23 24 24 25 24 23 18 16 15 16 16 18 20 22 19 19 20 19 20 22 20 19 20 21 21 20 20 19
16 16 28 23 3 10 18 20 21 12 10 16 20 22 21 23 25 23 20 23 25 23 23 23 23 23 23 23 24 24 24 24 24 24 23 22 21 23 25 24 23 24 24 24 14 14 18 18 21 23 24 24 23 20
17 9 4 5 18 22 4 15 10 5 13 19 23 25 25 24 24 23 23 24 26 26 24 24 25 26 26 26 26 25 25 26 26 26 24 23 24 25 25 24 25 25 24 22 23 25 11 11 11 9 9 10 12 14
14 16 17 16 15 16 21 8 13 17 17 17 16 19 20 21 22 20 25 24 25 25 24 26 26 26 23 27 27 23 23 22 26 26 26 22 25 29 30 31 32 24 18 19 21 21 22 20 19 19 18 20 24 25
13 16 18 13 13 14 13 14 14 17 19 20 19 17 20 19 18 14 25 26 24 26 27 27 27 27 28 29 22 29 27 30 30 27 31 27 26 29 29 31 28 29 30 31 29 26 26 27 25 23 25 28 29 30
14 14 14 13 11 13 12 13 12 16 18 19 19 22 23 22 20 21 24 26 27 26 26 27 29 30 31 32 32 33 33 33 33 31 23 18 25 28 28 30 33 33 32 30 29 30 30 28 29 31 29 31 31 30
Wind_Direction
322 321 319 314 310 308 309 309 308 307 305 296 291 282 280 276 274 273 265 269 260 255 255 262 259 253 255 251 250 260 253 247 248 246 245 247 253 249 249 255 250 255 254 257 262 265 266 278 281 280 295 313 315 318
325 325 321 316 309 305 302 301 299 298 299 293 282 277 276 272 268 269 264 268 264 256 254 268 261 257 254 255 257 261 258 256 257 246 250 250 256 262 251 245 265 259 263 263 272 273 273 280 295 304 306 305 313 316
338 332 329 321 313 307 300 293 290 288 286 279 277 271 273 269 263 261 260 268 265 255 258 253 257 251 252 251 256 253 257 263 260 263 263 256 256 258 252 252 264 259 275 269 275 281 284 288 299 305 309 309 315 317
354 352 343 333 299 303 294 285 279 277 275 270 263 262 263 260 256 256 255 259 265 259 255 251 268 260 258 253 251 255 261 265 262 261 259 259 256 266 258 274 262 287 266 265 273 281 286 287 293 295 301 308 311 314
32 35 24 224 295 290 276 265 262 261 264 261 258 257 252 253 252 251 252 250 257 252 251 256 266 263 258 254 251 250 260 262 261 259 256 257 269 270 262 274 265 277 280 273 277 290 275 291 285 296 300 303 308 309
24 36 239 254 221 244 255 250 246 252 257 252 254 252 248 247 245 248 250 251 253 250 255 250 268 260 260 255 251 247 255 265 264 262 261 267 273 267 268 265 267 292 289 288 292 297 298 304 300 299 300 302 304 305
43 244 250 253 255 239 244 237 235 248 250 247 247 247 243 240 235 239 248 251 254 251 251 252 253 259 259 252 255 252 258 262 264 265 264 269 268 267 264 264 283 279 291 295 296 295 290 294 293 298 300 303 304 305
234 255 265 273 260 246 241 240 241 243 240 236 237 235 234 235 234 236 236 236 242 242 250 252 258 251 251 252 254 263 258 264 265 267 269 265 275 275 266 267 270 282 287 288 290 291 294 297 296 297 299 301 301 303
245 247 253 243 248 250 253 249 241 236 226 222 221 221 220 222 228 240 246 241 231 245 246 250 251 251 251 252 268 259 265 264 276 264 269 272 266 269 278 273 278 281 284 287 292 294 295 296 297 297 299 301 302 304
252 249 225 213 237 231 239 235 223 214 207 202 198 206 211 224 224 221 233 231 235 240 247 246 261 264 247 254 258 263 264 267 272 268 280 272 269 278 278 288 285 290 294 292 290 292 294 297 301 304 303 304 306 307
244 227 212 218 205 212 226 212 194 194 189 194 199 204 206 207 216 226 229 230 236 238 241 251 252 251 254 252 255 269 268 273 271 279 275 278 278 273 281 285 291 293 296 297 296 297 298 298 298 298 300 303 305 307
261 216 227 219 217 220 211 196 210 198 194 202 196 198 201 209 219 223 222 231 227 240 241 244 242 268 254 256 266 263 269 275 274 289 282 278 286 297 296 296 299 300 300 301 301 301 300 298 295 295 297 300 302 307
220 225 232 224 219 224 209 197 203 200 196 182 191 201 208 211 213 210 214 221 230 236 243 247 245 257 257 254 269 269 269 271 286 281 281 287 304 299 297 298 300 304 303 302 301 308 309 307 313 305 303 306 306 307
202 218 208 205 208 206 199 195 191 191 191 180 183 187 193 202 205 216 237 232 251 229 224 251 251 250 261 254 270 267 276 283 280 279 283 291 304 301 303 301 299 297 299 301 311 313 313 316 317 317 316 314 317 319
195 202 196 191 192 198 195 196 204 203 184 182 184 182 189 189 183 202 204 224 247 226 224 239 230 245 249 265 260 267 279 275 283 289 306 325 317 305 303 299 296 298 307 318 321 322 322 320 321 324 326 325 320 318
183 186 181 189 192 199 204 214 200 197 189 186 183 177 178 184 187 208 224 231 246 239 225 240 243 259 248 253 262 261 270 276 293 296 303 305 303 297 299 299 298 312 324 331 335 339 337 338 340 337 331 328 328 322
164 166 184 191 199 201 204 200 199 195 192 186 188 191 209 219 230 235 240 245 252 254 238 238 246 261 259 261 265 271 280 289 285 284 283 275 269 279 288 300 322 339 345 347 356 1 351 343 343 339 347 343 350 346
149 157 171 188 212 199 186 191 198 195 191 200 211 221 231 228 228 245 264 271 265 269 258 250 249 245 250 252 265 279 278 280 280 278 268 258 244 229 267 302 306 331 350 354 354 343 354 351 18 11 20 23 21 21
156 166 181 199 207 189 193 200 206 197 209 226 231 254 246 250 258 255 247 249 246 247 237 237 228 228 233 241 247 260 276 270 259 257 246 252 305 355 17 346 3 321 347 352 325 320 342 298 302 7 44 26 31 37
163 175 186 201 198 156 154 157 179 159 160 167 176 176 182 181 190 181 185 189 192 190 192 199 202 213 211 193 184 188 205 204 235 278 1 330 325 296 326 329 275 257 358 32 26 340 87 31 2 349 344 19 22 23
143 143 150 151 149 154 152 154 155 156 160 160 171 182 179 187 190 182 173 177 174 163 151 152 150 159 164 171 174 175 184 105 24 10 336 9 7 329 268 226 238 212 72 109 84 334 278 333 19 45 48 21 17 16
144 147 146 148 144 145 149 157 163 169 156 151 144 139 131 129 137 140 139 133 140 143 142 154 150 140 140 140 139 135 133 110 121 97 49 237 123 78 118 150 139 22 11 1 333 322 327 333 349 5 5 14 25 20
137 136 136 132 127 131 131 142 137 137 139 135 138 131 124 122 128 131 133 129 129 135 137 143 132 131 109 93 174 181 191 104 117 131 119 111 147 228 188 241 320 330 319 332 334 343 355 355 21 324 15 31 27 25
131 128 126 122 121 118 119 119 126 130 130 133 133 129 128 125 120 123 124 130 138 133 108 31 185 104 32 107 352 276 251 129 160 334 255 16 14 24 103 73 53 49 53 65 17 352 3 19 24 353 317 335 2 356
118 120 128 128 122 121 129 128 125 125 50 114 108 134 144 134 121 113 24 151 126 134 171 249 56 71 230 264 346 354 289 286 301 325 302 278 344 54 43 44 21 340 327 332 16 61 39 359 41 34 34 25 348 329
107 112 124 132 125 126 130 132 144 149 131 128 104 115 127 59 121 103 113 298 310 9 288 326 339 284 357 332 306 299 294 288 263 241 29 327 329 336 341 330 338 347 334 337 333 348 6 21 357 339 337 342 342 333
119 148 125 128 131 134 129 133 140 124 101 137 209 34 39 37 35 73 123 110 125 19 354 318 311 335 335 333 334 325 305 331 332 277 308 311 346 347 333 330 331 335 324 335 337 339 331 329 329 327 324 326 327 335
131 128 19 154 335 283 30 10 328 284 267 209 212 227 141 134 115 114 92 70 90 70 40 36 51 37 28 10 5 359 355 355 33 33 27 14 10 0 352 343 352 356 348 345 341 336 337 339 337 335 334 332 328 325
114 117 75 22 248 341 6 20 24 355 339 10 26 33 30 37 68 84 88 60 35 7 352 354 354 7 15 19 11 12 9 1 358 356 347 344 347 340 340 344 342 341 338 335 357 353 343 338 328 325 324 324 325 329
113 140 213 304 24 61 291 140 54 268 353 34 56 62 61 70 55 19 20 8 27 14 354 359 359 1 354 349 350 351 349 348 346 336 320 309 311 321 333 343 342 341 345 350 346 337 5 355 352 348 342 341 340 334
120 107 109 114 124 110 72 214 325 358 5 355 333 8 32 40 12 341 7 26 20 18 13 4 10 18 35 5 357 316 307 299 336 341 342 289 293 312 310 305 300 339 349 344 342 342 340 339 335 331 329 326 322 320
109 85 65 110 134 127 149 124 124 65 41 29 45 46 28 33 33 70 8 13 24 15 11 2 359 352 343 340 300 320 355 318 331 341 333 345 349 343 339 333 337 335 330 326 327 327 326 324 324 323 320 319 319 320
93 88 90 97 122 100 110 78 72 23 22 28 27 29 30 39 36 25 11 8 11 7 349 356 353 341 328 327 327 322 325 323 328 338 354 358 348 342 341 335 331 329 328 328 328 326 324 323 319 317 315 314 312 310